| time (UTC) | temp C | wind direction | speed KPH | gust KPH | rain 1hr cm | rain 24hr cm | rain mn cm | humidity % | barometer mb |
| 20260507051532 | 5 | 282 | 0.0 | 0.0 | 0.00 | 0.00 | 0.00 | 74 | 1013.4 |
| 20260507051028 | 6 | 282 | 0.0 | 0.0 | 0.00 | 0.00 | 0.00 | 74 | 1013.5 |
| 20260507050525 | 6 | 282 | 0.0 | 0.0 | 0.00 | 0.00 | 0.00 | 73 | 1013.5 |
| 20260507050022 | 6 | 282 | 0.0 | 0.0 | 0.00 | 0.00 | 0.00 | 73 | 1013.6 |
| 20260507045518 | 6 | 282 | 0.0 | 0.0 | 0.00 | 0.00 | 0.00 | 73 | 1013.6 |
| 20260507045016 | 6 | 282 | 0.0 | 0.0 | 0.00 | 0.00 | 0.00 | 74 | 1013.7 |
| 20260507044512 | 6 | 282 | 0.0 | 0.0 | 0.00 | 0.00 | 0.00 | 73 | 1013.7 |
| 20260507044009 | 6 | 282 | 0.0 | 0.0 | 0.00 | 0.00 | 0.00 | 72 | 1013.6 |
| 20260507043505 | 6 | 282 | 0.0 | 0.0 | 0.00 | 0.00 | 0.00 | 71 | 1013.6 |
| 20260507043001 | 6 | 282 | 0.0 | 0.0 | 0.00 | 0.00 | 0.00 | 71 | 1013.6 |
| 20260507042458 | 6 | 282 | 0.0 | 0.0 | 0.00 | 0.00 | 0.00 | 70 | 1013.7 |
| 20260507041954 | 6 | 282 | 0.0 | 0.0 | 0.00 | 0.00 | 0.00 | 70 | 1013.5 |
| 20260507041451 | 6 | 282 | 0.0 | 0.0 | 0.00 | 0.00 | 0.00 | 71 | 1013.6 |
| 20260507040948 | 6 | 282 | 0.0 | 0.0 | 0.00 | 0.00 | 0.00 | 71 | 1013.6 |
| 20260507040443 | 6 | 282 | 0.0 | 0.0 | 0.00 | 0.00 | 0.00 | 72 | 1013.5 |
| 20260507035939 | 6 | 282 | 0.0 | 0.0 | 0.00 | 0.00 | 0.00 | 72 | 1013.5 |
| 20260507035436 | 6 | 282 | 0.0 | 0.0 | 0.00 | 0.00 | 0.00 | 72 | 1013.6 |
| 20260507034933 | 6 | 282 | 0.0 | 0.0 | 0.00 | 0.00 | 0.00 | 73 | 1013.6 |
| 20260507034430 | 7 | 282 | 0.0 | 0.0 | 0.00 | 0.00 | 0.00 | 74 | 1013.5 |
| 20260507033928 | 7 | 282 | 0.0 | 0.0 | 0.00 | 0.00 | 0.00 | 73 | 1013.8 |
| 20260507033425 | 7 | 282 | 0.0 | 0.0 | 0.00 | 0.00 | 0.00 | 73 | 1013.5 |
| 20260507032922 | 7 | 282 | 0.0 | 0.0 | 0.00 | 0.00 | 0.00 | 74 | 1013.5 |
| 20260507032419 | 7 | 282 | 0.0 | 0.0 | 0.00 | 0.00 | 0.00 | 73 | 1013.7 |
| 20260507031915 | 7 | 282 | 0.0 | 0.0 | 0.00 | 0.00 | 0.00 | 71 | 1013.7 |
| 20260507031412 | 7 | 282 | 0.0 | 0.0 | 0.00 | 0.00 | 0.00 | 69 | 1013.7 |
| 20260507030909 | 7 | 282 | 0.0 | 0.0 | 0.00 | 0.00 | 0.00 | 69 | 1013.7 |
| 20260507030406 | 7 | 282 | 0.0 | 0.0 | 0.00 | 0.00 | 0.00 | 72 | 1013.6 |
| 20260507025903 | 7 | 282 | 0.0 | 0.0 | 0.00 | 0.00 | 0.00 | 69 | 1013.7 |
| 20260507025401 | 7 | 282 | 0.0 | 0.0 | 0.00 | 0.00 | 0.00 | 69 | 1013.7 |
| 20260507024858 | 7 | 282 | 0.0 | 0.0 | 0.00 | 0.00 | 0.00 | 65 | 1013.8 |
| 20260507024355 | 7 | 282 | 0.0 | 0.0 | 0.00 | 0.00 | 0.00 | 66 | 1013.8 |
| 20260507023851 | 7 | 282 | 0.0 | 0.0 | 0.00 | 0.00 | 0.00 | 66 | 1013.8 |
| 20260507023348 | 7 | 282 | 0.0 | 0.0 | 0.00 | 0.00 | 0.00 | 67 | 1013.7 |
| 20260507022845 | 7 | 282 | 0.0 | 0.0 | 0.00 | 0.00 | 0.00 | 67 | 1013.7 |
| 20260507022342 | 7 | 282 | 0.0 | 0.0 | 0.00 | 0.00 | 0.00 | 65 | 1013.8 |
| 20260507021837 | 7 | 282 | 0.0 | 0.0 | 0.00 | 0.00 | 0.00 | 66 | 1013.7 |
| 20260507021333 | 7 | 282 | 0.0 | 0.0 | 0.00 | 0.00 | 0.00 | 64 | 1013.8 |
| 20260507020831 | 7 | 282 | 0.0 | 0.0 | 0.00 | 0.00 | 0.00 | 67 | 1013.7 |
| 20260507020328 | 7 | 282 | 0.0 | 0.0 | 0.00 | 0.00 | 0.00 | 64 | 1013.7 |
| 20260507015825 | 8 | 282 | 0.0 | 0.0 | 0.00 | 0.00 | 0.00 | 60 | 1013.4 |
| 20260507015322 | 8 | 282 | 0.0 | 0.0 | 0.00 | 0.00 | 0.00 | 61 | 1013.5 |
| 20260507014814 | 8 | 282 | 0.0 | 0.0 | 0.00 | 0.00 | 0.00 | 62 | 1013.4 |
| 20260507014310 | 8 | 282 | 0.0 | 0.0 | 0.00 | 0.00 | 0.00 | 61 | 1013.4 |
| 20260507013806 | 8 | 282 | 0.0 | 0.0 | 0.00 | 0.00 | 0.00 | 59 | 1013.5 |
| 20260507013304 | 8 | 282 | 0.0 | 0.0 | 0.00 | 0.00 | 0.00 | 58 | 1013.4 |
| 20260507012801 | 8 | 282 | 0.0 | 0.0 | 0.00 | 0.00 | 0.00 | 63 | 1013.3 |
| 20260507012256 | 8 | 282 | 0.0 | 0.0 | 0.00 | 0.00 | 0.00 | 62 | 1013.4 |
| 20260507011754 | 8 | 282 | 0.0 | 0.0 | 0.00 | 0.00 | 0.00 | 61 | 1013.3 |
| 20260507011251 | 8 | 282 | 0.0 | 0.0 | 0.00 | 0.00 | 0.00 | 59 | 1013.4 |
| 20260507010750 | 8 | 282 | 0.0 | 0.0 | 0.00 | 0.00 | 0.00 | 57 | 1013.3 |
| 20260507010246 | 8 | 282 | 0.0 | 0.0 | 0.00 | 0.00 | 0.00 | 58 | 1013.3 |
| 20260507005744 | 9 | 282 | 0.0 | 0.0 | 0.00 | 0.00 | 0.00 | 58 | 1013.2 |
| 20260507005240 | 9 | 282 | 0.0 | 0.0 | 0.00 | 0.00 | 0.00 | 54 | 1013.1 |
| 20260507004737 | 9 | 282 | 0.0 | 0.0 | 0.00 | 0.00 | 0.00 | 54 | 1013.2 |
| 20260507004235 | 9 | 282 | 0.0 | 0.0 | 0.00 | 0.00 | 0.00 | 54 | 1013.2 |
| 20260507003730 | 9 | 282 | 0.0 | 0.0 | 0.00 | 0.00 | 0.00 | 52 | 1013.1 |
| 20260507003226 | 10 | 282 | 0.0 | 0.0 | 0.00 | 0.00 | 0.00 | 54 | 1013.4 |
| 20260507002722 | 10 | 282 | 0.0 | 0.0 | 0.00 | 0.00 | 0.00 | 51 | 1013.3 |
| 20260507002218 | 10 | 282 | 0.0 | 0.0 | 0.00 | 0.00 | 0.00 | 49 | 1013.2 |
| 20260507001715 | 10 | 282 | 0.0 | 1.6 | 0.00 | 0.00 | 0.00 | 47 | 1013.3 |
| 20260507001213 | 10 | 306 | 1.6 | 1.6 | 0.00 | 0.00 | 0.00 | 46 | 1013.1 |
| 20260507000709 | 10 | 295 | 1.6 | 1.6 | 0.00 | 0.00 | 0.00 | 46 | 1013.0 |
| 20260507000205 | 10 | 288 | 0.0 | 1.6 | 0.00 | 0.00 | 0.00 | 47 | 1013.0 |
| 20260506235702 | 10 | 281 | 0.0 | 0.0 | 0.00 | 0.00 | 0.00 | 48 | 1013.2 |
| 20260506235157 | 10 | 302 | 0.0 | 1.6 | 0.00 | 0.00 | 0.00 | 48 | 1013.0 |
| 20260506234654 | 10 | 277 | 1.6 | 3.2 | 0.00 | 0.00 | 0.00 | 46 | 1013.1 |
| 20260506234151 | 10 | 300 | 3.2 | 4.8 | 0.00 | 0.00 | 0.00 | 45 | 1013.0 |
| 20260506233649 | 10 | 276 | 4.8 | 8.0 | 0.00 | 0.00 | 0.00 | 44 | 1013.1 |
| 20260506233145 | 10 | 290 | 4.8 | 8.0 | 0.00 | 0.00 | 0.00 | 46 | 1012.9 |
| 20260506232641 | 11 | 351 | 9.7 | 12.9 | 0.00 | 0.00 | 0.00 | 43 | 1013.1 |
| 20260506232137 | 11 | 284 | 3.2 | 3.2 | 0.00 | 0.00 | 0.00 | 43 | 1013.0 |
| 20260506231634 | 11 | 332 | 4.8 | 4.8 | 0.00 | 0.00 | 0.00 | 42 | 1012.9 |
| 20260506231133 | 11 | 343 | 4.8 | 4.8 | 0.00 | 0.00 | 0.00 | 42 | 1013.2 |
| 20260506230629 | 11 | 305 | 4.8 | 4.8 | 0.00 | 0.00 | 0.00 | 43 | 1012.9 |
| 20260506230126 | 11 | 337 | 4.8 | 8.0 | 0.00 | 0.00 | 0.00 | 42 | 1013.0 |
| 20260506225623 | 11 | 294 | 3.2 | 3.2 | 0.00 | 0.00 | 0.00 | 42 | 1012.9 |
| 20260506225119 | 11 | 285 | 6.4 | 11.3 | 0.00 | 0.00 | 0.00 | 41 | 1013.0 |
| 20260506224616 | 11 | 268 | 4.8 | 4.8 | 0.00 | 0.00 | 0.00 | 43 | 1013.1 |
| 20260506224112 | 11 | 275 | 1.6 | 1.6 | 0.00 | 0.00 | 0.00 | 45 | 1012.8 |
| 20260506223609 | 11 | 299 | 6.4 | 8.0 | 0.00 | 0.00 | 0.00 | 42 | 1012.8 |
| 20260506223105 | 11 | 305 | 3.2 | 8.0 | 0.00 | 0.00 | 0.00 | 42 | 1012.6 |
| 20260506222602 | 11 | 322 | 3.2 | 3.2 | 0.00 | 0.00 | 0.00 | 43 | 1012.9 |
| 20260506222058 | 11 | 337 | 4.8 | 4.8 | 0.00 | 0.00 | 0.00 | 44 | 1012.7 |
| 20260506221556 | 11 | 308 | 6.4 | 8.0 | 0.00 | 0.00 | 0.00 | 42 | 1012.6 |
| 20260506221054 | 11 | 289 | 4.8 | 8.0 | 0.00 | 0.00 | 0.00 | 44 | 1012.6 |
| 20260506220550 | 11 | 285 | 3.2 | 3.2 | 0.00 | 0.00 | 0.00 | 44 | 1012.8 |
| 20260506220045 | 11 | 288 | 1.6 | 1.6 | 0.00 | 0.00 | 0.00 | 45 | 1012.8 |
| 20260506215542 | 11 | 274 | 3.2 | 4.8 | 0.00 | 0.00 | 0.00 | 45 | 1012.8 |
| 20260506215038 | 11 | 349 | 4.8 | 8.0 | 0.00 | 0.00 | 0.00 | 42 | 1012.7 |
| 20260506214535 | 11 | 282 | 4.8 | 9.7 | 0.00 | 0.00 | 0.00 | 42 | 1012.5 |
| 20260506214033 | 11 | 269 | 4.8 | 4.8 | 0.00 | 0.00 | 0.00 | 43 | 1012.8 |
| 20260506213530 | 11 | 305 | 1.6 | 3.2 | 0.00 | 0.00 | 0.00 | 42 | 1012.6 |
| 20260506213027 | 11 | 295 | 4.8 | 8.0 | 0.00 | 0.00 | 0.00 | 44 | 1012.5 |
| 20260506212523 | 11 | 252 | 1.6 | 1.6 | 0.00 | 0.00 | 0.00 | 43 | 1012.6 |
| 20260506212019 | 11 | 0 | 4.8 | 8.0 | 0.00 | 0.00 | 0.00 | 42 | 1012.5 |
| 20260506211514 | 12 | 246 | 1.6 | 1.6 | 0.00 | 0.00 | 0.00 | 44 | 1012.5 |
| 20260506211012 | 12 | 289 | 1.6 | 1.6 | 0.00 | 0.00 | 0.00 | 45 | 1012.5 |
| 20260506210509 | 12 | 288 | 1.6 | 3.2 | 0.00 | 0.00 | 0.00 | 44 | 1012.5 |
| 20260506210006 | 12 | 270 | 3.2 | 4.8 | 0.00 | 0.00 | 0.00 | 42 | 1012.5 |
| 20260506205502 | 12 | 50 | 0.0 | 1.6 | 0.00 | 0.00 | 0.00 | 42 | 1012.4 |
| 20260506204957 | 12 | 344 | 1.6 | 1.6 | 0.00 | 0.00 | 0.00 | 40 | 1012.4 |
| 20260506204456 | 12 | 70 | 3.2 | 8.0 | 0.00 | 0.00 | 0.00 | 40 | 1012.4 |
| 20260506203953 | 12 | 327 | 3.2 | 3.2 | 0.00 | 0.00 | 0.00 | 41 | 1012.5 |
| 20260506203450 | 12 | 10 | 3.2 | 4.8 | 0.00 | 0.00 | 0.00 | 43 | 1012.4 |
| 20260506202947 | 12 | 334 | 8.0 | 9.7 | 0.00 | 0.00 | 0.00 | 42 | 1012.5 |
| 20260506202444 | 12 | 268 | 3.2 | 4.8 | 0.00 | 0.00 | 0.00 | 43 | 1012.7 |
| 20260506201940 | 12 | 294 | 3.2 | 3.2 | 0.00 | 0.00 | 0.00 | 44 | 1012.7 |
| 20260506201438 | 12 | 277 | 1.6 | 3.2 | 0.00 | 0.00 | 0.00 | 43 | 1012.6 |
| 20260506200934 | 12 | 326 | 4.8 | 8.0 | 0.00 | 0.00 | 0.00 | 43 | 1012.7 |
| 20260506200431 | 12 | 43 | 3.2 | 4.8 | 0.00 | 0.00 | 0.00 | 41 | 1012.7 |
| 20260506195927 | 12 | 68 | 3.2 | 3.2 | 0.00 | 0.00 | 0.00 | 41 | 1012.7 |
| 20260506195424 | 12 | 312 | 3.2 | 3.2 | 0.00 | 0.00 | 0.00 | 40 | 1012.7 |
| 20260506194921 | 12 | 244 | 1.6 | 3.2 | 0.00 | 0.00 | 0.00 | 43 | 1012.8 |
| 20260506194418 | 12 | 87 | 4.8 | 4.8 | 0.00 | 0.00 | 0.00 | 42 | 1012.7 |
| 20260506193915 | 12 | 320 | 0.0 | 0.0 | 0.00 | 0.00 | 0.00 | 42 | 1012.7 |
| 20260506193412 | 12 | 338 | 4.8 | 4.8 | 0.00 | 0.00 | 0.00 | 42 | 1013.0 |
| 20260506192908 | 12 | 336 | 3.2 | 3.2 | 0.00 | 0.00 | 0.00 | 42 | 1012.9 |
| 20260506192405 | 12 | 275 | 1.6 | 1.6 | 0.00 | 0.00 | 0.00 | 43 | 1012.8 |
| 20260506191902 | 12 | 284 | 4.8 | 4.8 | 0.00 | 0.00 | 0.00 | 41 | 1012.9 |
| 20260506191358 | 12 | 110 | 4.8 | 8.0 | 0.00 | 0.00 | 0.00 | 41 | 1013.0 |
| 20260506190856 | 11 | 299 | 1.6 | 3.2 | 0.00 | 0.00 | 0.00 | 44 | 1012.9 |
| 20260506190352 | 11 | 274 | 1.6 | 1.6 | 0.00 | 0.00 | 0.00 | 44 | 1012.9 |
| 20260506185849 | 11 | 36 | 0.0 | 0.0 | 0.00 | 0.00 | 0.00 | 43 | 1013.1 |
| 20260506185346 | 11 | 183 | 1.6 | 1.6 | 0.00 | 0.00 | 0.00 | 43 | 1013.1 |
| 20260506184843 | 12 | 321 | 3.2 | 3.2 | 0.00 | 0.00 | 0.00 | 43 | 1013.3 |
| 20260506184340 | 12 | 74 | 1.6 | 3.2 | 0.00 | 0.00 | 0.00 | 43 | 1013.1 |
| 20260506183837 | 12 | 225 | 1.6 | 3.2 | 0.00 | 0.00 | 0.00 | 45 | 1013.4 |
| 20260506183333 | 11 | 349 | 6.4 | 8.0 | 0.00 | 0.00 | 0.00 | 46 | 1013.3 |
| 20260506182830 | 10 | 282 | 4.8 | 4.8 | 0.00 | 0.00 | 0.00 | 45 | 1013.0 |
| 20260506182327 | 11 | 333 | 11.3 | 16.1 | 0.00 | 0.00 | 0.00 | 42 | 1013.0 |
| 20260506181825 | 11 | 130 | 1.6 | 3.2 | 0.00 | 0.00 | 0.00 | 43 | 1012.9 |
| 20260506181322 | 11 | 3 | 11.3 | 14.5 | 0.00 | 0.00 | 0.00 | 43 | 1012.9 |
| 20260506180819 | 11 | 12 | 8.0 | 12.9 | 0.00 | 0.00 | 0.00 | 44 | 1012.9 |
| 20260506180315 | 11 | 298 | 4.8 | 4.8 | 0.00 | 0.00 | 0.00 | 44 | 1013.1 |
| 20260506175812 | 11 | 305 | 4.8 | 8.0 | 0.00 | 0.00 | 0.00 | 42 | 1012.7 |
| 20260506175309 | 11 | 337 | 3.2 | 3.2 | 0.00 | 0.00 | 0.00 | 44 | 1012.9 |
| 20260506174806 | 11 | 341 | 6.4 | 8.0 | 0.00 | 0.00 | 0.00 | 44 | 1013.0 |
| 20260506174303 | 12 | 193 | 0.0 | 0.0 | 0.00 | 0.00 | 0.00 | 42 | 1013.0 |
| 20260506173801 | 11 | 20 | 3.2 | 4.8 | 0.00 | 0.00 | 0.00 | 43 | 1013.0 |
| 20260506173257 | 11 | 86 | 3.2 | 4.8 | 0.00 | 0.00 | 0.00 | 44 | 1013.1 |
| 20260506172754 | 11 | 263 | 6.4 | 8.0 | 0.00 | 0.00 | 0.00 | 42 | 1013.1 |
| 20260506172251 | 11 | 334 | 4.8 | 4.8 | 0.00 | 0.00 | 0.00 | 42 | 1013.1 |
| 20260506171749 | 12 | 293 | 9.7 | 14.5 | 0.00 | 0.00 | 0.00 | 41 | 1013.1 |
| 20260506171245 | 11 | 10 | 6.4 | 9.7 | 0.00 | 0.00 | 0.00 | 42 | 1013.3 |
| 20260506170743 | 11 | 218 | 3.2 | 3.2 | 0.00 | 0.00 | 0.00 | 41 | 1013.4 |
| 20260506170239 | 11 | 327 | 4.8 | 4.8 | 0.00 | 0.00 | 0.00 | 45 | 1013.7 |
| 20260506165738 | 11 | 332 | 4.8 | 4.8 | 0.00 | 0.00 | 0.00 | 46 | 1013.6 |
| 20260506165235 | 11 | 47 | 6.4 | 9.7 | 0.00 | 0.00 | 0.00 | 43 | 1013.6 |
| 20260506164732 | 11 | 144 | 3.2 | 3.2 | 0.00 | 0.00 | 0.00 | 43 | 1013.7 |
| 20260506164229 | 10 | 285 | 1.6 | 1.6 | 0.00 | 0.00 | 0.00 | 42 | 1013.4 |
| 20260506163725 | 10 | 10 | 4.8 | 4.8 | 0.00 | 0.00 | 0.00 | 43 | 1013.5 |
| 20260506163220 | 10 | 300 | 6.4 | 8.0 | 0.00 | 0.00 | 0.00 | 45 | 1013.7 |
| 20260506162717 | 11 | 281 | 3.2 | 3.2 | 0.00 | 0.00 | 0.00 | 43 | 1013.7 |
| 20260506162214 | 11 | 333 | 8.0 | 9.7 | 0.00 | 0.00 | 0.00 | 43 | 1013.7 |
| 20260506161711 | 10 | 239 | 6.4 | 12.9 | 0.00 | 0.00 | 0.00 | 42 | 1013.7 |
| 20260506161209 | 10 | 280 | 6.4 | 9.7 | 0.00 | 0.00 | 0.00 | 43 | 1013.5 |
| 20260506160706 | 10 | 257 | 1.6 | 3.2 | 0.00 | 0.00 | 0.00 | 45 | 1013.5 |
| 20260506160202 | 10 | 307 | 4.8 | 8.0 | 0.00 | 0.00 | 0.00 | 44 | 1013.4 |
| 20260506155701 | 10 | 202 | 0.0 | 1.6 | 0.00 | 0.00 | 0.00 | 45 | 1013.4 |
| 20260506155158 | 10 | 320 | 3.2 | 3.2 | 0.00 | 0.00 | 0.00 | 46 | 1013.6 |
| 20260506153300 | 10 | 310 | 9.7 | 12.9 | 0.00 | 0.00 | 0.00 | 44 | 1013.5 |
| 20260506152756 | 10 | 46 | 1.6 | 1.6 | 0.00 | 0.00 | 0.00 | 46 | 1013.5 |
| 20260506152254 | 10 | 359 | 1.6 | 3.2 | 0.00 | 0.00 | 0.00 | 45 | 1013.3 |
| 20260506151753 | 10 | 308 | 4.8 | 4.8 | 0.00 | 0.00 | 0.00 | 43 | 1013.4 |
| 20260506151249 | 10 | 280 | 1.6 | 3.2 | 0.00 | 0.00 | 0.00 | 45 | 1013.2 |
| 20260506150746 | 10 | 277 | 6.4 | 8.0 | 0.00 | 0.00 | 0.00 | 43 | 1013.1 |
| 20260506150243 | 11 | 329 | 6.4 | 9.7 | 0.00 | 0.00 | 0.00 | 44 | 1013.1 |
| 20260506145739 | 10 | 242 | 3.2 | 3.2 | 0.00 | 0.00 | 0.00 | 44 | 1013.3 |
| 20260506145236 | 10 | 293 | 4.8 | 8.0 | 0.00 | 0.00 | 0.00 | 44 | 1013.2 |
| 20260506144734 | 10 | 338 | 9.7 | 11.3 | 0.00 | 0.00 | 0.00 | 45 | 1013.3 |
| 20260506144231 | 10 | 2 | 9.7 | 12.9 | 0.00 | 0.00 | 0.00 | 44 | 1013.2 |
| 20260506143728 | 10 | 167 | 0.0 | 1.6 | 0.00 | 0.00 | 0.00 | 45 | 1013.1 |
| 20260506143225 | 9 | 336 | 4.8 | 8.0 | 0.00 | 0.00 | 0.00 | 48 | 1013.0 |
| 20260506142724 | 9 | 311 | 6.4 | 9.7 | 0.00 | 0.00 | 0.00 | 48 | 1013.2 |
| 20260506142222 | 10 | 53 | 3.2 | 4.8 | 0.00 | 0.00 | 0.00 | 48 | 1013.0 |
| 20260506141719 | 9 | 305 | 1.6 | 3.2 | 0.00 | 0.00 | 0.00 | 50 | 1012.9 |
| 20260506141217 | 9 | 343 | 6.4 | 9.7 | 0.00 | 0.00 | 0.00 | 50 | 1012.9 |
| 20260506140715 | 8 | 331 | 6.4 | 8.0 | 0.00 | 0.00 | 0.00 | 50 | 1012.7 |
| 20260506140212 | 9 | 328 | 9.7 | 14.5 | 0.00 | 0.00 | 0.00 | 50 | 1012.7 |
| 20260506135708 | 10 | 160 | 3.2 | 3.2 | 0.00 | 0.00 | 0.00 | 51 | 1012.2 |
| 20260506135205 | 9 | 218 | 3.2 | 3.2 | 0.00 | 0.00 | 0.00 | 52 | 1012.5 |
| 20260506134701 | 8 | 255 | 4.8 | 8.0 | 0.00 | 0.00 | 0.00 | 51 | 1012.4 |
| 20260506134158 | 8 | 275 | 3.2 | 3.2 | 0.00 | 0.00 | 0.00 | 52 | 1012.4 |
| 20260506133655 | 8 | 260 | 4.8 | 4.8 | 0.00 | 0.00 | 0.00 | 53 | 1012.5 |
| 20260506133151 | 8 | 309 | 8.0 | 9.7 | 0.00 | 0.00 | 0.00 | 51 | 1012.4 |
| 20260506132649 | 8 | 51 | 1.6 | 1.6 | 0.00 | 0.00 | 0.00 | 55 | 1012.3 |
| 20260506132146 | 8 | 267 | 6.4 | 12.9 | 0.00 | 0.00 | 0.00 | 54 | 1012.5 |
| 20260506131643 | 8 | 354 | 4.8 | 8.0 | 0.00 | 0.00 | 0.00 | 55 | 1012.5 |
| 20260506131139 | 8 | 330 | 4.8 | 8.0 | 0.00 | 0.00 | 0.00 | 55 | 1012.5 |
| 20260506130636 | 8 | 35 | 6.4 | 8.0 | 0.00 | 0.00 | 0.00 | 54 | 1012.5 |
| 20260506130134 | 8 | 177 | 4.8 | 4.8 | 0.00 | 0.00 | 0.00 | 54 | 1012.3 |
| 20260506125632 | 8 | 118 | 8.0 | 12.9 | 0.00 | 0.00 | 0.00 | 55 | 1012.4 |
| 20260506125129 | 8 | 15 | 4.8 | 4.8 | 0.00 | 0.00 | 0.00 | 54 | 1012.1 |
| 20260506124627 | 8 | 320 | 3.2 | 4.8 | 0.00 | 0.00 | 0.00 | 55 | 1012.3 |
| 20260506124124 | 7 | 103 | 3.2 | 3.2 | 0.00 | 0.00 | 0.00 | 56 | 1012.1 |
| 20260506123622 | 7 | 287 | 3.2 | 4.8 | 0.00 | 0.00 | 0.00 | 57 | 1011.8 |
| 20260506123121 | 7 | 5 | 4.8 | 8.0 | 0.00 | 0.00 | 0.00 | 58 | 1011.7 |
| 20260506122617 | 7 | 323 | 6.4 | 9.7 | 0.00 | 0.00 | 0.00 | 60 | 1012.0 |
| 20260506122115 | 7 | 34 | 1.6 | 3.2 | 0.00 | 0.00 | 0.00 | 62 | 1011.9 |
| 20260506121612 | 6 | 357 | 0.0 | 1.6 | 0.00 | 0.00 | 0.00 | 63 | 1011.9 |
| 20260506121108 | 6 | 355 | 6.4 | 8.0 | 0.00 | 0.00 | 0.00 | 65 | 1011.5 |
| 20260506120606 | 6 | 271 | 1.6 | 1.6 | 0.00 | 0.00 | 0.00 | 66 | 1011.7 |
| 20260506120103 | 6 | 4 | 3.2 | 3.2 | 0.00 | 0.00 | 0.00 | 66 | 1011.6 |
| 20260506115602 | 6 | 305 | 1.6 | 1.6 | 0.00 | 0.00 | 0.00 | 67 | 1011.6 |
| 20260506115100 | 5 | 330 | 1.6 | 3.2 | 0.00 | 0.00 | 0.00 | 69 | 1011.1 |
| 20260506114557 | 5 | 307 | 1.6 | 1.6 | 0.00 | 0.00 | 0.00 | 73 | 1011.2 |
| 20260506114055 | 5 | 307 | 0.0 | 0.0 | 0.00 | 0.00 | 0.00 | 75 | 1011.4 |
| 20260506113552 | 4 | 297 | 0.0 | 1.6 | 0.00 | 0.00 | 0.00 | 76 | 1011.0 |
| 20260506113049 | 4 | 273 | 0.0 | 1.6 | 0.00 | 0.00 | 0.00 | 78 | 1011.1 |
| 20260506112546 | 4 | 273 | 0.0 | 0.0 | 0.00 | 0.00 | 0.00 | 76 | 1011.1 |
| 20260506112043 | 5 | 272 | 0.0 | 0.0 | 0.00 | 0.00 | 0.00 | 78 | 1011.1 |
| 20260506111541 | 4 | 272 | 0.0 | 0.0 | 0.00 | 0.00 | 0.00 | 76 | 1011.4 |
| 20260506111038 | 3 | 287 | 0.0 | 0.0 | 0.00 | 0.00 | 0.00 | 80 | 1011.0 |
| 20260506110536 | 3 | 298 | 0.0 | 0.0 | 0.00 | 0.00 | 0.00 | 81 | 1010.6 |
| 20260506110033 | 3 | 298 | 0.0 | 0.0 | 0.00 | 0.00 | 0.00 | 81 | 1010.8 |
| 20260506105529 | 3 | 280 | 1.6 | 3.2 | 0.00 | 0.00 | 0.00 | 82 | 1010.7 |
| 20260506105026 | 3 | 270 | 0.0 | 0.0 | 0.00 | 0.00 | 0.00 | 81 | 1011.0 |
| 20260506104524 | 3 | 270 | 0.0 | 0.0 | 0.00 | 0.00 | 0.00 | 81 | 1010.7 |
| 20260506104022 | 3 | 270 | 0.0 | 0.0 | 0.00 | 0.00 | 0.00 | 80 | 1010.6 |
| 20260506103519 | 3 | 270 | 0.0 | 0.0 | 0.00 | 0.00 | 0.00 | 79 | 1010.5 |
| 20260506103015 | 4 | 270 | 0.0 | 0.0 | 0.00 | 0.00 | 0.00 | 79 | 1010.4 |
| 20260506102514 | 4 | 270 | 0.0 | 0.0 | 0.00 | 0.00 | 0.00 | 77 | 1010.4 |
| 20260506102011 | 4 | 270 | 0.0 | 0.0 | 0.00 | 0.00 | 0.00 | 77 | 1010.2 |
| 20260506101507 | 5 | 270 | 0.0 | 0.0 | 0.00 | 0.00 | 0.00 | 76 | 1010.2 |
| 20260506101005 | 5 | 271 | 0.0 | 0.0 | 0.00 | 0.00 | 0.00 | 75 | 1010.1 |
| 20260506100503 | 5 | 270 | 0.0 | 0.0 | 0.00 | 0.00 | 0.00 | 74 | 1010.2 |
| 20260506100001 | 5 | 270 | 0.0 | 0.0 | 0.00 | 0.00 | 0.00 | 74 | 1010.1 |
| 20260506095459 | 5 | 270 | 0.0 | 0.0 | 0.00 | 0.00 | 0.00 | 72 | 1010.2 |
| 20260506094955 | 5 | 270 | 0.0 | 0.0 | 0.00 | 0.00 | 0.00 | 72 | 1010.3 |
| 20260506094453 | 6 | 306 | 0.0 | 0.0 | 0.00 | 0.00 | 0.00 | 70 | 1010.3 |
| 20260506093950 | 6 | 327 | 0.0 | 0.0 | 0.00 | 0.00 | 0.00 | 69 | 1010.3 |
| 20260506093449 | 6 | 293 | 0.0 | 0.0 | 0.00 | 0.00 | 0.00 | 71 | 1010.3 |
| 20260506092946 | 6 | 293 | 0.0 | 1.6 | 0.00 | 0.00 | 0.00 | 67 | 1010.3 |
| 20260506092444 | 6 | 296 | 0.0 | 1.6 | 0.00 | 0.00 | 0.00 | 67 | 1010.1 |
| 20260506091940 | 6 | 334 | 1.6 | 1.6 | 0.00 | 0.00 | 0.00 | 67 | 1010.0 |
| 20260506091439 | 6 | 335 | 0.0 | 0.0 | 0.00 | 0.00 | 0.00 | 67 | 1009.6 |
| 20260506090936 | 6 | 32 | 0.0 | 0.0 | 0.00 | 0.00 | 0.00 | 68 | 1009.6 |
| 20260506090433 | 6 | 310 | 1.6 | 1.6 | 0.00 | 0.00 | 0.00 | 66 | 1009.5 |
| 20260506085929 | 6 | 55 | 1.6 | 1.6 | 0.00 | 0.00 | 0.00 | 66 | 1009.6 |
| 20260506085426 | 6 | 90 | 0.0 | 0.0 | 0.00 | 0.00 | 0.00 | 66 | 1009.5 |
| 20260506084922 | 6 | 206 | 0.0 | 0.0 | 0.00 | 0.00 | 0.00 | 66 | 1009.7 |
| 20260506084420 | 6 | 75 | 0.0 | 1.6 | 0.00 | 0.00 | 0.00 | 65 | 1009.6 |
| 20260506083915 | 6 | 311 | 0.0 | 0.0 | 0.00 | 0.00 | 0.00 | 65 | 1009.8 |
| 20260506083413 | 7 | 324 | 0.0 | 1.6 | 0.00 | 0.00 | 0.00 | 65 | 1009.8 |
| 20260506082911 | 7 | 0 | 0.0 | 1.6 | 0.00 | 0.00 | 0.00 | 66 | 1009.7 |
| 20260506082408 | 7 | 50 | 1.6 | 3.2 | 0.00 | 0.00 | 0.00 | 64 | 1009.9 |
| 20260506081903 | 7 | 273 | 0.0 | 0.0 | 0.00 | 0.00 | 0.00 | 65 | 1009.4 |
| 20260506081402 | 7 | 316 | 0.0 | 0.0 | 0.00 | 0.00 | 0.00 | 64 | 1009.5 |
| 20260506080858 | 7 | 207 | 0.0 | 1.6 | 0.00 | 0.00 | 0.00 | 66 | 1009.6 |
| 20260506080355 | 7 | 29 | 4.8 | 4.8 | 0.00 | 0.00 | 0.00 | 64 | 1009.6 |
| 20260506073339 | 7 | 69 | 1.6 | 3.2 | 0.00 | 0.00 | 0.00 | 63 | 1009.7 |
| 20260506072836 | 7 | 239 | 1.6 | 1.6 | 0.00 | 0.00 | 0.00 | 63 | 1009.8 |
| 20260506072334 | 7 | 340 | 4.8 | 4.8 | 0.00 | 0.00 | 0.00 | 63 | 1010.0 |
| 20260506071831 | 7 | 212 | 1.6 | 1.6 | 0.00 | 0.00 | 0.00 | 64 | 1009.6 |
| 20260506071329 | 7 | 8 | 3.2 | 3.2 | 0.00 | 0.00 | 0.00 | 63 | 1009.3 |
| 20260506070826 | 7 | 294 | 0.0 | 1.6 | 0.00 | 0.00 | 0.00 | 64 | 1009.7 |
| 20260506070323 | 7 | 130 | 0.0 | 0.0 | 0.00 | 0.00 | 0.00 | 63 | 1009.4 |
| 20260506062300 | 7 | 325 | 1.6 | 1.6 | 0.00 | 0.00 | 0.00 | 65 | 1009.7 |
| 20260506061755 | 7 | 294 | 0.0 | 0.0 | 0.00 | 0.00 | 0.00 | 65 | 1009.7 |
| 20260506061253 | 7 | 294 | 0.0 | 1.6 | 0.00 | 0.00 | 0.00 | 66 | 1009.9 |
| 20260506060751 | 7 | 275 | 3.2 | 3.2 | 0.00 | 0.00 | 0.00 | 65 | 1009.8 |
| 20260506060249 | 7 | 340 | 1.6 | 1.6 | 0.00 | 0.00 | 0.00 | 67 | 1009.7 |